Temp
84 92 98 94 84 94 80 81 87 83 83 87 88 83 80 82 78 72 88 92 94 96 95 90 80 80 80 80 80 80 80 80 80 80 80 80 80 80 80 80 81 81 82 81 81 81 81 81 81
98 93 96 95 82 76 77 85 84 87 88 89 87 84 80 78 85 86 90 91 91 95 94 94 79 80 80 80 79 79 80 80 80 80 80 80 80 80 80 80 81 81 82 82 82 81 81 81 81
96 97 95 93 88 71 74 84 87 87 88 87 85 86 84 82 86 88 93 94 94 95 96 90 80 80 80 79 79 79 79 80 80 80 80 80 80 80 80 80 81 81 82 82 82 81 81 81 81
97 98 98 85 78 83 85 87 88 86 88 90 88 85 87 91 89 90 92 94 96 99 97 83 79 79 79 79 79 79 79 80 80 80 80 80 80 80 80 80 81 81 82 82 81 81 81 81 80
101 99 89 84 81 85 88 90 90 87 88 89 88 85 85 89 90 90 89 91 94 96 96 93 80 79 80 80 79 79 79 79 80 80 80 81 80 80 80 81 81 81 81 81 81 81 80 80 80
95 97 83 79 81 85 89 90 89 88 88 90 88 88 88 92 90 91 93 92 93 94 95 91 81 79 79 79 79 79 79 79 80 80 80 80 80 80 80 80 80 81 81 81 81 80 80 79 79
93 90 84 82 81 83 86 91 88 89 88 88 93 86 91 91 92 94 95 95 96 95 94 93 91 84 79 79 79 79 78 79 79 79 79 79 80 80 80 80 80 80 80 80 80 80 79 79 79
97 94 82 84 81 81 87 90 92 90 88 94 94 88 88 94 94 95 97 97 96 92 95 95 92 94 91 89 79 79 79 79 78 78 78 78 79 79 79 79 78 80 80 79 79 79 79 79 78
95 86 82 81 82 84 90 88 92 94 91 91 93 93 93 95 95 94 94 95 94 91 95 95 96 93 93 93 87 80 79 79 79 80 79 79 91 91 90 86 80 79 79 79 79 79 78 78 78
92 88 82 88 89 88 90 89 89 88 88 89 91 94 94 93 93 91 91 94 92 94 94 95 94 92 93 93 89 90 91 92 90 91 88 92 94 93 92 87 79 79 79 79 79 78 78 79 92
91 84 88 88 90 91 89 89 91 88 84 90 90 93 94 93 92 94 95 96 98 97 97 96 91 90 94 93 93 93 94 91 90 89 88 90 92 92 93 94 93 90 82 92 88 88 88 92 95
84 88 89 89 89 89 87 91 86 86 84 91 94 94 95 94 96 95 96 98 96 95 94 95 93 89 89 92 91 91 94 93 92 90 88 89 90 90 88 90 91 91 93 92 92 95 93 93 92
87 86 88 89 90 89 91 86 85 83 87 92 92 91 92 95 96 98 95 93 92 92 89 91 88 86 85 85 86 84 87 91 90 92 88 92 91 87 89 89 91 91 93 94 93 94 93 93 93
87 87 86 88 88 87 85 83 85 82 87 88 88 88 91 91 93 96 95 91 88 85 86 85 86 84 86 84 83 85 85 83 86 88 87 86 89 86 90 90 90 91 92 93 93 93 93 93 95
89 83 86 85 85 82 88 78 75 81 85 84 85 87 88 90 91 93 93 89 86 84 82 82 82 84 82 82 85 85 88 88 86 84 82 83 84 83 83 88 89 90 88 89 91 91 91 91 93
82 82 78 83 84 82 83 70 76 81 82 81 82 84 85 86 86 86 90 88 84 84 80 80 84 83 81 80 84 86 86 88 87 86 86 83 83 82 83 86 85 85 87 89 88 88 89 91 92
80 74 74 76 83 82 82 72 75 79 78 77 80 81 82 82 81 81 84 84 83 81 81 79 81 81 80 78 81 82 81 86 86 87 87 82 84 83 82 84 83 81 85 86 85 85 84 85 88
72 72 74 73 78 80 76 72 74 77 77 76 78 79 79 78 77 79 81 81 82 81 80 78 80 77 77 81 79 84 84 85 87 86 85 82 86 82 82 84 80 81 83 83 81 78 83 83 84
77 74 72 75 77 75 73 71 71 74 76 76 77 77 77 77 79 80 80 81 80 79 78 78 77 76 81 83 84 83 85 84 86 87 84 83 84 84 81 84 81 81 80 76 77 80 80 82 85
75 72 72 75 75 75 72 68 70 72 72 73 75 75 76 78 78 78 79 80 79 78 78 78 77 77 81 84 82 83 83 85 85 85 81 81 81 81 81 78 80 78 81 76 75 75 78 82 83
72 70 69 69 73 75 72 68 67 70 73 73 75 76 77 76 76 77 77 77 78 76 75 75 75 75 77 76 81 80 80 79 80 82 82 82 80 80 79 79 78 77 78 81 75 76 73 76 80
68 72 71 70 68 65 71 62 66 69 68 70 72 74 75 75 77 77 78 77 77 77 78 77 76 75 74 72 72 72 74 75 79 78 80 79 78 78 78 77 78 76 81 77 77 80 74 73 75
68 72 70 69 67 67 68 62 66 68 66 68 70 71 73 74 75 75 77 77 79 79 79 78 76 75 75 74 73 74 70 73 78 78 75 74 75 77 77 77 76 75 77 76 74 73 73 76 74
73 70 70 68 68 58 65 62 67 67 67 68 70 71 71 73 75 76 77 78 78 80 79 78 75 74 75 75 73 70 68 70 68 70 68 75 78 80 78 76 75 75 75 75 75 73 72 72 72
72 67 59 57 57 56 64 60 64 66 67 69 68 70 71 73 74 74 75 76 76 76 76 76 75 72 74 73 73 73 70 69 68 70 73 72 73 76 76 76 73 74 73 75 74 72 72 72 72
65 64 57 45 51 57 66 55 62 68 68 69 70 70 71 72 75 74 75 75 75 74 73 73 73 71 73 72 72 72 71 72 72 71 72 72 73 74 74 74 74 72 74 73 72 73 74 72 72
64 62 64 55 59 54 64 62 64 66 66 67 68 68 69 70 71 72 74 74 73 73 72 72 72 72 72 71 70 70 70 69 69 67 68 70 70 72 72 73 71 70 70 71 71 71 70 70 70
66 67 56 60 42 45 59 58 60 60 63 66 65 67 68 70 71 73 73 72 73 73 73 73 73 71 71 71 71 70 69 69 68 67 65 66 67 68 68 69 68 66 67 68 68 69 70 68 70
64 63 60 58 55 47 47 57 65 63 65 64 66 68 68 69 70 71 72 73 73 73 74 72 71 71 70 70 69 68 67 66 65 64 65 65 65 65 66 66 67 66 63 64 65 66 67 67 67
65 62 59 51 49 55 53 51 67 66 67 66 64 66 69 69 70 72 72 72 71 71 71 70 69 69 69 69 65 63 61 61 60 59 59 61 62 63 62 63 65 64 64 63 63 65 67 67 66
MSLP
1012.68 1012.21 1011.51 1010.62 1008.78 1005.93 1005.71 1006.67 1007.00 1007.09 1007.60 1008.73 1009.39 1010.06 1010.50 1010.73 1010.71 1011.43 1012.82 1012.96 1012.88 1013.02 1013.81 1014.78 1015.40 1015.42 1015.47 1015.62 1015.69 1015.94 1016.07 1016.18 1016.19 1016.44 1016.59 1016.76 1016.95 1017.14 1017.33 1017.55 1017.73 1017.79 1017.79 1017.93 1017.99 1018.16 1018.32 1018.41 1018.44
1011.40 1011.59 1010.82 1008.30 1006.67 1005.80 1006.25 1007.04 1006.64 1007.28 1008.00 1008.92 1009.63 1010.13 1010.68 1010.94 1011.71 1012.04 1012.46 1013.44 1013.67 1013.47 1014.00 1014.44 1015.85 1015.87 1015.85 1015.80 1015.86 1016.10 1016.28 1016.48 1016.62 1016.74 1016.94 1017.08 1017.25 1017.36 1017.52 1017.64 1017.75 1017.87 1018.01 1018.10 1018.25 1018.31 1018.41 1018.57 1018.67
1011.38 1010.85 1008.42 1006.50 1005.87 1006.57 1006.17 1006.85 1007.03 1007.90 1008.65 1008.90 1009.20 1010.20 1010.45 1011.04 1012.14 1012.24 1012.90 1013.31 1013.60 1013.79 1014.16 1014.95 1015.90 1016.28 1016.22 1016.20 1016.23 1016.26 1016.37 1016.56 1016.82 1017.00 1017.14 1017.32 1017.44 1017.63 1017.78 1017.93 1017.97 1017.96 1018.04 1018.18 1018.28 1018.48 1018.51 1018.57 1018.75
1010.50 1009.48 1008.05 1006.13 1005.40 1006.38 1006.22 1007.04 1007.70 1008.16 1008.61 1009.04 1009.26 1009.27 1010.96 1011.72 1012.14 1012.91 1013.46 1013.54 1013.51 1013.35 1014.04 1015.59 1016.05 1016.41 1016.43 1016.56 1016.66 1016.74 1016.51 1016.81 1016.81 1017.07 1017.33 1017.45 1017.59 1017.75 1017.87 1018.05 1018.16 1018.18 1018.18 1018.24 1018.29 1018.42 1018.55 1018.63 1018.69
1009.62 1007.75 1006.09 1005.66 1005.86 1006.91 1007.17 1007.42 1007.88 1007.86 1008.33 1008.53 1009.30 1009.34 1010.51 1012.24 1013.05 1013.44 1013.87 1013.94 1013.49 1013.83 1014.25 1015.20 1016.29 1016.47 1016.55 1016.66 1016.80 1016.88 1016.99 1016.94 1017.12 1017.13 1017.16 1017.59 1017.64 1017.85 1017.96 1017.91 1018.06 1018.26 1018.28 1018.35 1018.51 1018.59 1018.65 1018.68 1018.72
1007.77 1007.14 1005.73 1005.39 1006.07 1007.08 1007.43 1007.95 1008.03 1008.15 1008.53 1008.64 1008.96 1009.15 1010.40 1012.27 1012.86 1013.34 1013.69 1013.93 1013.94 1014.12 1014.46 1015.38 1016.42 1016.72 1016.57 1016.60 1016.59 1016.75 1016.95 1017.00 1017.27 1017.35 1017.40 1017.55 1017.71 1017.85 1018.05 1018.10 1018.08 1018.18 1018.20 1018.19 1018.29 1018.51 1018.65 1018.74 1018.67
1007.08 1006.25 1005.69 1005.81 1006.23 1006.85 1007.54 1008.43 1008.22 1008.14 1008.40 1008.47 1008.99 1008.62 1010.20 1011.61 1012.87 1013.27 1013.52 1013.72 1013.86 1014.26 1014.53 1015.05 1015.56 1016.33 1016.81 1017.10 1016.84 1016.59 1016.56 1017.10 1017.16 1017.32 1017.58 1017.60 1017.65 1017.75 1017.91 1017.98 1017.92 1018.07 1018.05 1018.04 1018.15 1018.26 1018.35 1018.45 1018.55
1007.46 1006.41 1006.32 1006.24 1006.40 1006.83 1008.10 1008.30 1008.54 1008.39 1008.65 1009.46 1009.64 1008.85 1009.13 1010.86 1012.68 1013.11 1013.18 1013.43 1013.74 1014.37 1014.30 1014.69 1015.28 1015.34 1015.75 1016.60 1017.04 1016.60 1016.42 1016.82 1016.87 1017.29 1017.33 1017.38 1017.40 1017.70 1017.70 1017.78 1017.85 1017.93 1017.96 1018.01 1017.91 1017.99 1018.07 1018.12 1018.16
1008.16 1006.40 1005.81 1006.42 1006.63 1007.33 1008.27 1008.02 1008.73 1009.28 1009.06 1009.60 1009.87 1009.99 1010.74 1011.43 1012.37 1012.59 1012.78 1013.08 1013.61 1014.08 1014.25 1014.50 1014.66 1015.25 1015.40 1015.64 1016.38 1016.63 1016.38 1016.51 1016.81 1017.09 1017.07 1017.23 1016.56 1016.58 1016.79 1016.83 1017.18 1017.51 1017.64 1017.62 1017.72 1017.63 1017.70 1017.80 1017.76
1007.05 1006.14 1006.71 1007.37 1007.46 1007.47 1008.20 1008.39 1008.86 1009.19 1009.40 1009.54 1009.73 1010.39 1011.01 1011.63 1012.06 1012.26 1012.40 1012.35 1013.15 1013.31 1013.96 1014.42 1014.67 1015.01 1015.02 1015.25 1015.98 1015.78 1015.83 1015.76 1016.25 1016.04 1016.26 1016.22 1015.92 1016.08 1016.11 1016.37 1017.05 1017.32 1017.41 1017.41 1017.42 1017.49 1017.50 1017.41 1016.43
1007.22 1006.98 1007.92 1008.27 1008.46 1008.31 1008.50 1008.93 1009.51 1009.35 1009.51 1010.00 1009.79 1009.85 1010.68 1011.15 1011.54 1011.56 1011.86 1011.84 1012.06 1012.75 1013.50 1014.26 1015.25 1015.47 1015.10 1015.20 1015.28 1015.31 1015.52 1016.08 1016.31 1016.04 1016.45 1016.28 1015.98 1015.96 1016.04 1015.81 1015.94 1016.22 1016.47 1016.18 1016.26 1016.28 1016.48 1015.74 1015.23
1007.99 1008.53 1008.44 1008.88 1009.27 1009.06 1008.94 1009.52 1010.46 1011.01 1011.62 1011.46 1010.72 1010.85 1010.73 1010.83 1010.78 1011.14 1011.20 1011.54 1012.40 1013.13 1013.66 1014.17 1014.56 1015.40 1015.53 1015.42 1015.39 1015.53 1015.62 1015.98 1015.98 1016.52 1016.72 1016.36 1015.99 1015.97 1016.08 1015.63 1015.54 1015.53 1015.37 1015.24 1015.37 1014.96 1015.00 1015.15 1015.27
1008.24 1008.85 1009.19 1009.47 1009.52 1009.76 1009.97 1010.43 1010.82 1011.92 1012.27 1011.71 1011.56 1011.66 1011.38 1011.10 1011.02 1011.15 1011.84 1012.88 1013.39 1013.73 1014.53 1014.53 1015.17 1015.59 1015.84 1015.89 1016.19 1016.56 1016.56 1016.23 1016.45 1016.42 1016.63 1016.25 1016.06 1016.35 1016.19 1016.01 1015.79 1015.47 1015.19 1014.86 1014.73 1014.64 1014.70 1014.51 1014.66
1009.26 1009.24 1009.47 1009.83 1010.06 1010.40 1010.45 1011.36 1011.53 1012.87 1012.94 1012.51 1012.46 1012.37 1012.18 1012.14 1012.09 1011.85 1012.09 1013.07 1013.91 1014.79 1015.03 1015.50 1015.70 1016.05 1016.10 1016.30 1016.67 1016.60 1016.87 1017.16 1016.88 1016.80 1016.98 1016.93 1016.49 1016.63 1016.20 1015.92 1015.75 1015.50 1015.28 1015.03 1014.75 1014.44 1014.31 1014.05 1013.87
1009.46 1009.24 1009.50 1010.12 1010.47 1010.99 1010.92 1011.90 1013.33 1014.03 1013.53 1013.20 1013.14 1013.08 1013.09 1013.01 1013.12 1012.65 1012.79 1013.69 1014.77 1015.33 1015.82 1016.05 1016.23 1016.33 1016.55 1016.72 1016.61 1016.85 1016.77 1016.97 1017.17 1017.37 1017.58 1017.20 1017.05 1016.85 1016.72 1015.95 1015.84 1015.68 1015.80 1015.52 1015.01 1014.66 1014.34 1014.18 1013.87
1009.71 1009.66 1008.89 1010.32 1010.67 1011.47 1011.71 1012.43 1014.11 1014.52 1014.10 1013.93 1013.94 1013.86 1013.75 1013.78 1014.06 1014.37 1013.65 1014.42 1015.54 1015.64 1016.22 1016.55 1016.51 1016.69 1017.11 1017.23 1017.00 1017.05 1017.35 1017.25 1017.27 1017.30 1017.45 1017.54 1017.38 1017.24 1016.77 1016.27 1016.35 1016.50 1015.96 1015.50 1015.36 1015.04 1014.33 1013.85 1013.41
1009.66 1008.76 1009.31 1010.45 1011.19 1011.24 1011.44 1012.72 1014.55 1015.03 1014.88 1014.69 1014.64 1014.60 1014.65 1014.81 1015.15 1015.41 1015.32 1015.36 1015.78 1016.22 1016.44 1016.78 1017.02 1017.17 1017.46 1017.77 1017.57 1017.66 1017.98 1017.47 1017.46 1017.38 1017.37 1017.75 1017.41 1017.28 1017.07 1016.85 1016.77 1016.75 1016.19 1015.85 1015.76 1015.42 1015.18 1014.54 1013.86
1009.14 1009.69 1010.27 1010.29 1011.60 1011.68 1012.09 1013.64 1014.83 1015.21 1015.18 1015.17 1015.16 1015.23 1015.36 1015.56 1015.90 1016.15 1016.16 1016.23 1016.27 1016.63 1017.01 1017.25 1017.23 1017.66 1017.67 1017.54 1017.82 1017.53 1017.46 1017.34 1017.25 1017.24 1017.46 1017.64 1017.27 1017.44 1017.24 1017.06 1017.17 1016.97 1016.49 1016.21 1016.43 1016.11 1015.42 1014.93 1014.43
1010.66 1010.56 1010.58 1011.31 1012.29 1012.33 1012.92 1013.90 1014.98 1015.55 1015.52 1015.65 1015.74 1015.83 1015.90 1016.10 1016.52 1016.54 1016.66 1016.70 1016.89 1017.25 1017.39 1017.45 1017.76 1017.91 1017.62 1017.35 1017.01 1017.03 1016.80 1017.02 1017.04 1017.18 1017.50 1017.51 1017.38 1017.32 1017.34 1016.76 1016.97 1016.99 1016.79 1016.79 1016.73 1016.06 1015.33 1014.71 1014.25
1011.36 1011.13 1011.19 1011.87 1012.65 1012.86 1013.47 1014.33 1015.35 1015.82 1016.24 1016.49 1016.31 1016.42 1016.50 1016.48 1016.66 1016.97 1017.05 1017.11 1017.28 1017.53 1017.67 1017.86 1017.94 1018.07 1017.83 1017.49 1017.51 1017.25 1017.16 1017.00 1017.00 1017.15 1017.63 1017.72 1017.66 1017.49 1017.33 1017.32 1016.95 1017.19 1016.75 1016.96 1016.89 1016.60 1015.76 1014.91 1014.62
1012.14 1012.02 1012.24 1012.36 1012.54 1012.96 1013.22 1013.66 1015.25 1016.07 1016.43 1016.82 1016.94 1016.96 1017.09 1017.18 1017.13 1017.26 1017.52 1017.74 1017.90 1018.11 1018.30 1018.43 1018.56 1018.48 1018.31 1018.32 1017.79 1017.62 1017.60 1017.61 1017.31 1017.04 1017.17 1017.05 1017.47 1017.38 1017.35 1017.23 1017.11 1016.97 1016.81 1016.22 1016.82 1016.62 1016.38 1015.43 1015.04
1012.62 1013.38 1013.38 1013.09 1012.95 1012.13 1013.19 1012.50 1014.06 1015.39 1016.25 1016.84 1017.09 1017.29 1017.46 1017.62 1017.69 1017.86 1017.91 1018.08 1018.14 1018.33 1018.49 1018.61 1018.71 1018.78 1018.83 1018.90 1018.71 1018.50 1018.05 1017.54 1017.29 1017.59 1017.23 1017.48 1017.59 1017.38 1017.09 1016.97 1016.84 1016.85 1016.39 1016.43 1016.33 1016.15 1016.34 1016.27 1015.33
1013.89 1014.32 1013.98 1013.71 1013.31 1012.93 1012.45 1013.34 1013.58 1015.00 1015.71 1016.67 1017.36 1017.76 1017.96 1018.08 1018.16 1018.15 1018.30 1018.34 1018.39 1018.38 1018.36 1018.57 1018.86 1018.93 1018.89 1018.87 1018.86 1018.43 1018.11 1017.87 1017.43 1017.30 1017.12 1017.02 1017.06 1016.91 1016.75 1016.60 1016.45 1016.42 1016.36 1016.18 1016.23 1016.20 1016.14 1015.76 1015.79
1015.09 1014.58 1014.05 1014.10 1013.33 1012.56 1012.25 1013.47 1012.25 1013.92 1015.36 1016.38 1017.59 1018.07 1018.37 1018.44 1018.33 1018.40 1018.40 1018.37 1018.32 1018.40 1018.52 1018.59 1018.70 1018.73 1018.82 1018.71 1018.69 1018.63 1018.40 1018.00 1017.84 1017.53 1017.10 1016.56 1015.93 1015.67 1015.30 1016.04 1016.20 1016.12 1015.93 1015.95 1015.89 1015.85 1015.94 1016.00 1016.03
1014.88 1014.39 1013.46 1012.94 1012.80 1012.43 1013.57 1014.04 1013.23 1015.02 1016.26 1017.00 1017.64 1018.28 1018.65 1018.74 1018.53 1018.62 1018.55 1018.44 1018.47 1018.37 1018.51 1018.52 1018.36 1018.45 1018.34 1018.23 1018.10 1017.97 1017.93 1017.95 1017.72 1017.13 1016.67 1016.27 1015.98 1015.38 1014.86 1014.86 1015.47 1015.45 1015.55 1015.16 1015.46 1015.65 1015.57 1015.70 1015.70
1015.77 1015.72 1015.00 1014.45 1013.69 1013.31 1013.44 1013.82 1014.40 1016.05 1017.31 1017.95 1018.36 1018.62 1018.74 1018.68 1018.74 1018.77 1018.70 1018.55 1018.45 1018.50 1018.56 1018.47 1018.27 1018.06 1017.92 1017.79 1017.63 1017.52 1017.48 1017.33 1016.91 1016.59 1016.44 1016.21 1015.72 1015.31 1015.09 1014.88 1014.50 1014.75 1014.76 1014.86 1015.09 1015.24 1014.97 1015.16 1015.43
1016.18 1016.32 1017.21 1016.38 1015.64 1014.83 1013.33 1014.30 1015.60 1016.76 1017.48 1018.03 1018.30 1018.76 1018.76 1019.04 1019.07 1018.70 1018.49 1018.52 1018.48 1018.52 1018.38 1018.19 1017.87 1017.56 1017.44 1017.31 1017.12 1016.97 1016.86 1016.89 1016.69 1016.73 1016.50 1015.99 1015.54 1015.13 1014.75 1014.42 1014.26 1014.36 1014.49 1014.57 1014.79 1014.90 1014.71 1014.96 1015.00
1017.22 1017.78 1017.36 1016.91 1016.46 1014.99 1013.67 1013.99 1014.50 1016.37 1017.03 1017.46 1018.48 1018.42 1018.73 1018.88 1018.69 1018.38 1018.29 1018.15 1018.19 1018.14 1018.02 1017.75 1017.52 1017.25 1017.08 1016.92 1016.65 1016.32 1016.21 1016.24 1016.30 1016.25 1015.92 1015.51 1015.01 1014.86 1014.70 1014.26 1013.75 1014.04 1014.06 1014.29 1014.38 1014.33 1014.35 1014.71 1014.63
1017.47 1017.30 1017.88 1018.24 1017.67 1016.52 1015.04 1014.41 1015.81 1016.64 1017.27 1017.93 1018.42 1018.62 1018.84 1018.72 1018.55 1018.31 1018.18 1017.95 1017.79 1017.63 1017.42 1017.31 1017.20 1016.92 1016.63 1016.47 1016.15 1015.93 1015.91 1015.98 1016.01 1015.87 1015.39 1014.86 1014.59 1014.36 1014.02 1013.77 1013.22 1013.14 1013.55 1013.62 1013.84 1013.98 1014.10 1014.12 1014.09
1017.93 1017.73 1018.11 1018.04 1017.75 1017.28 1016.93 1016.09 1016.82 1017.44 1017.82 1018.42 1018.70 1018.79 1018.74 1018.74 1018.25 1017.96 1017.70 1017.44 1017.20 1017.05 1016.96 1016.83 1016.80 1016.61 1016.36 1016.05 1016.07 1016.13 1016.15 1016.02 1015.84 1015.68 1015.50 1015.02 1014.40 1013.96 1013.59 1013.22 1012.54 1012.39 1012.51 1012.76 1013.05 1013.10 1013.11 1013.05 1013.11
Wind_Speed
9 9 5 6 5 1 8 10 3 7 4 4 5 1 1 4 7 5 4 6 4 11 10 10 7 10 12 11 12 13 13 14 15 14 13 12 11 10 9 9 8 9 10 9 9 9 8 8 8
4 6 6 6 3 1 6 3 9 7 6 5 5 3 2 7 2 7 9 8 4 7 8 9 6 6 10 11 12 12 12 12 12 12 11 11 10 10 10 9 9 9 8 8 7 7 7 6 6
8 8 7 4 4 7 7 4 8 5 3 2 2 0 2 6 6 6 7 10 11 8 7 11 8 5 7 9 10 11 12 12 11 11 11 10 9 8 8 8 7 8 8 7 7 6 6 6 5
6 6 6 12 6 8 6 7 5 5 3 1 3 4 6 8 7 5 7 8 8 9 8 13 9 8 8 8 8 9 11 10 12 11 10 9 9 7 7 6 6 6 6 6 6 6 5 5 5
7 5 5 4 4 7 4 5 6 3 4 3 1 7 7 9 9 9 9 6 7 7 7 11 9 10 10 9 10 9 9 9 9 10 10 8 8 8 7 7 6 5 5 5 5 5 5 5 4
8 5 9 6 5 7 3 3 2 2 2 4 3 4 11 12 10 10 11 9 8 8 7 11 10 6 9 11 12 11 10 9 8 8 8 8 7 6 6 5 5 6 6 6 6 5 5 6 6
11 8 1 1 6 7 4 2 5 3 1 2 6 1 9 12 12 11 10 10 11 9 9 9 12 12 9 5 9 13 11 9 9 7 6 6 6 6 7 7 7 7 7 7 7 7 7 7 8
5 5 8 6 6 10 5 4 1 5 7 5 2 6 10 16 14 10 9 11 11 10 10 10 9 11 11 12 9 10 13 10 9 9 9 9 8 9 9 7 9 9 8 8 8 8 8 8 9
3 7 7 5 6 11 7 4 1 3 3 2 2 6 6 10 13 8 8 10 11 7 8 8 9 10 9 11 10 9 9 11 11 11 10 9 9 11 12 10 6 10 11 10 10 10 10 10 11
7 4 5 4 6 10 7 1 5 4 4 6 3 4 4 11 11 8 8 10 10 12 12 11 11 10 11 8 10 9 10 8 8 8 8 9 6 6 6 2 8 9 11 10 11 12 11 11 10
1 10 7 7 6 2 4 5 1 4 4 15 13 5 4 8 8 8 10 7 11 11 9 10 7 6 8 6 5 4 3 3 3 1 4 4 4 5 6 5 6 8 13 9 12 12 11 12 8
12 7 3 6 5 2 2 5 11 12 11 11 5 9 0 5 5 6 5 7 3 3 4 6 8 6 2 3 2 3 2 2 2 3 3 1 4 2 4 5 6 5 6 6 7 6 6 7 8
9 6 4 3 6 7 9 8 8 17 16 8 6 3 5 7 5 4 3 6 6 2 5 4 4 4 4 4 4 4 3 3 3 2 4 3 3 3 4 3 5 5 7 7 7 7 6 8 10
4 4 4 2 8 3 9 10 4 15 14 9 8 8 8 9 10 11 6 4 3 3 3 6 6 5 6 6 5 4 4 3 3 3 4 4 2 2 2 3 5 5 5 6 7 8 8 8 9
10 9 8 7 4 5 4 10 11 12 10 9 9 9 10 10 13 13 9 7 7 3 3 6 6 7 7 6 4 4 3 3 3 3 4 4 5 4 5 4 4 5 6 8 8 8 8 9 10
8 6 8 9 5 4 8 8 9 9 8 9 9 9 10 11 13 14 15 2 1 2 6 4 6 6 6 6 4 3 3 2 3 3 3 4 4 5 3 4 5 7 7 6 5 8 9 10 10
9 4 3 8 5 3 7 9 7 6 6 7 8 9 11 12 14 13 11 6 2 2 6 7 6 7 6 5 4 3 3 2 3 3 3 5 5 5 4 4 4 6 5 6 7 6 7 8 10
6 6 3 2 5 2 6 8 6 5 6 7 8 10 11 13 15 12 10 6 3 6 7 6 6 6 5 4 4 3 3 3 2 2 4 4 3 4 4 3 4 5 4 4 6 7 8 7 8
1 4 3 3 3 2 3 5 5 5 5 7 9 10 12 13 13 13 12 9 6 6 6 6 5 4 3 4 3 3 2 2 1 1 2 3 4 3 3 4 3 5 4 5 6 7 7 7 7
4 5 2 3 1 8 7 6 4 4 6 7 7 10 11 11 13 12 13 11 9 8 6 5 4 3 2 2 1 3 3 3 4 3 4 5 6 6 5 4 3 2 5 3 5 6 7 7 3
1 6 2 8 1 6 6 12 10 7 6 6 7 8 9 11 12 12 12 11 9 8 8 8 9 9 7 8 4 3 5 6 7 6 5 5 7 8 7 7 6 5 5 3 3 4 5 8 7
9 3 7 9 10 9 4 9 13 10 8 5 4 6 7 9 10 10 10 10 10 9 9 9 8 7 5 5 5 6 7 8 8 8 9 9 12 12 12 10 9 8 6 3 4 1 4 4 8
6 7 7 9 11 11 13 8 12 10 10 8 3 3 4 6 7 9 10 10 10 9 9 7 8 8 8 6 6 6 6 8 9 9 11 11 12 15 14 14 12 10 9 6 5 4 2 4 5
5 8 7 7 7 11 4 5 4 7 9 7 4 0 4 7 7 7 7 8 8 9 10 11 12 11 10 8 7 7 7 8 7 10 9 11 11 10 11 13 14 12 11 8 7 4 5 3 4
8 8 4 5 6 5 3 8 3 6 3 2 1 1 2 5 6 8 10 11 12 14 15 15 14 15 14 14 14 13 11 11 13 11 11 13 11 11 11 11 14 13 13 10 8 7 4 5 5
5 7 4 6 6 11 7 6 8 5 3 2 1 4 6 8 11 12 14 14 15 15 16 15 15 15 15 15 16 15 14 11 12 13 12 12 13 13 13 14 13 16 16 12 9 8 7 4 6
4 1 5 7 8 9 1 4 11 7 6 3 3 6 9 11 13 15 15 15 15 15 16 16 17 18 17 18 16 16 15 15 14 16 15 14 14 14 15 14 13 13 14 14 10 9 8 7 7
7 4 5 3 6 9 6 8 5 7 8 4 8 9 10 13 15 16 16 17 15 16 16 17 18 18 19 19 17 16 16 16 17 17 20 19 17 17 17 18 14 12 12 13 11 9 10 10 8
7 5 1 5 5 6 9 5 6 8 8 8 13 15 14 16 17 17 18 17 18 18 18 18 18 19 19 19 18 17 16 18 18 18 19 17 18 18 19 19 17 13 12 10 10 12 12 12 12
3 3 4 3 3 7 10 13 6 4 9 9 13 14 15 16 17 18 19 19 19 19 19 19 19 20 19 18 17 17 16 16 15 15 16 18 19 18 15 17 17 15 14 12 12 14 13 14 13
Wind_Direction
182 195 216 231 252 252 103 89 40 104 162 84 90 133 33 9 353 27 120 111 148 142 148 165 158 155 148 134 129 135 138 141 144 146 143 140 138 132 125 120 123 125 121 119 118 117 119 122 120
186 179 216 278 237 206 66 60 76 50 66 136 132 157 161 91 79 103 143 137 126 122 143 147 144 158 151 139 132 132 133 136 137 138 137 135 132 131 133 134 134 129 127 127 126 129 131 133 135
228 232 263 270 258 179 148 116 105 101 135 211 140 208 91 85 104 118 75 138 157 151 153 111 145 164 147 142 135 133 133 136 137 137 136 134 133 135 137 142 144 142 141 144 145 149 146 146 152
201 199 223 247 105 51 80 114 112 133 130 247 15 110 116 41 114 69 108 140 159 146 146 112 148 159 145 141 137 133 125 132 131 136 136 138 138 139 142 145 153 160 162 164 163 167 165 171 171
221 247 243 270 100 124 83 95 159 153 65 79 245 95 88 110 100 112 127 141 134 139 119 144 156 156 142 140 136 126 125 120 124 132 136 146 146 154 163 166 174 183 188 191 194 192 194 205 215
223 274 246 187 154 138 126 151 217 290 24 86 209 134 97 119 124 114 130 134 137 133 129 131 147 153 145 155 145 140 138 128 137 141 144 151 158 166 180 191 197 209 212 208 211 222 224 226 230
264 237 259 225 163 154 115 258 237 345 81 134 18 129 97 138 129 120 128 142 145 142 138 148 147 140 132 146 147 147 134 149 152 154 165 170 181 194 204 208 209 221 224 223 226 227 230 236 242
276 265 194 200 171 120 128 176 299 230 82 77 316 19 94 125 152 144 133 136 141 155 145 149 151 156 161 165 165 150 150 155 158 178 179 182 188 210 211 217 216 225 231 237 234 240 241 242 243
264 238 202 149 184 113 142 173 171 61 155 119 43 5 59 136 165 166 162 142 123 150 149 145 153 166 172 154 151 159 153 166 172 188 188 192 215 196 206 210 153 204 225 227 229 226 230 239 246
250 220 63 37 66 131 129 301 146 221 162 202 220 126 136 154 169 178 192 184 171 159 167 168 167 166 163 161 171 166 162 174 195 191 176 221 220 227 270 229 196 233 240 240 235 236 235 229 253
311 94 122 102 66 359 118 139 120 268 189 10 338 94 157 185 191 199 184 218 191 179 173 163 152 175 182 160 164 147 137 142 181 50 316 285 278 224 226 243 209 223 207 240 207 212 219 229 250
115 93 82 79 55 227 134 101 75 46 10 334 318 3 324 209 213 214 277 160 173 127 119 156 137 162 123 71 19 95 114 89 83 85 217 148 230 238 280 290 308 247 251 254 251 256 243 251 242
115 113 95 102 90 57 96 58 96 30 1 15 17 355 333 313 278 258 285 24 8 71 71 116 81 75 95 100 96 67 38 52 85 85 54 26 348 343 306 321 284 305 299 272 254 253 254 247 235
143 131 120 87 85 92 95 60 354 10 353 11 6 356 338 321 305 299 282 321 352 44 77 84 89 88 98 89 89 98 89 100 49 68 44 67 18 10 310 308 317 303 307 298 293 277 274 258 261
155 152 130 83 132 129 151 76 36 4 1 10 1 348 336 337 329 298 300 343 341 76 107 103 97 86 84 100 104 83 93 105 111 85 43 44 17 31 327 359 329 344 324 298 296 277 264 260 258
202 243 194 81 156 139 228 104 46 9 10 27 21 13 359 2 359 356 327 316 262 193 132 95 95 106 88 86 85 80 96 120 96 78 61 32 34 25 355 358 6 356 318 317 318 312 297 288 277
194 170 165 122 57 162 253 114 50 26 36 41 38 33 29 25 24 13 5 349 341 200 142 118 103 97 97 84 88 105 129 95 71 52 37 18 27 36 357 15 17 338 335 332 332 323 312 302 286
147 175 192 243 80 107 106 109 87 57 57 53 50 47 45 42 31 26 24 25 65 108 109 106 105 107 107 128 163 150 148 134 105 73 49 13 34 30 335 29 358 316 323 329 340 327 323 294 286
300 264 268 87 90 223 81 122 92 77 76 69 55 50 48 47 46 44 40 46 60 89 115 130 123 115 166 195 203 179 166 128 189 274 314 324 337 353 333 326 329 313 329 347 322 316 308 307 319
263 270 222 192 95 279 176 151 130 110 83 65 57 55 48 46 48 43 41 44 55 56 55 66 58 46 332 228 3 312 304 257 313 310 307 294 288 285 272 293 293 319 312 323 329 331 314 295 333
331 307 293 301 248 250 232 197 180 150 129 101 75 60 50 43 41 41 43 43 39 38 26 22 18 9 6 353 304 271 254 236 239 238 258 275 282 279 265 265 276 255 270 307 291 324 319 313 303
284 22 294 280 274 290 244 291 190 164 160 147 107 55 36 24 27 29 24 25 31 24 32 23 9 3 353 343 330 308 293 291 309 290 285 301 287 278 267 251 247 246 267 252 227 236 308 296 305
16 320 298 290 272 290 228 254 103 173 191 167 153 56 35 18 10 6 7 7 9 8 7 7 1 357 349 327 307 299 308 314 311 299 301 284 273 263 255 253 246 241 241 207 232 229 261 293 317
308 258 247 260 258 239 101 267 224 178 237 163 182 351 2 354 346 344 345 336 346 344 341 333 330 322 314 301 288 288 290 302 303 310 307 287 284 283 253 239 246 242 239 232 229 220 231 291 299
325 307 303 230 203 281 100 263 324 96 141 299 260 296 332 330 330 330 327 325 322 322 329 323 318 308 302 296 289 283 284 286 279 281 287 289 283 283 285 257 242 238 232 234 231 224 244 254 288
356 332 313 303 321 319 230 260 76 87 134 171 266 315 298 324 331 323 317 317 315 321 315 315 310 308 310 300 291 284 279 284 293 283 301 295 292 292 293 286 258 240 243 226 223 236 239 257 264
66 348 10 300 263 260 2 194 187 168 184 212 304 320 321 325 315 311 315 316 314 309 305 307 304 302 300 297 292 285 275 279 288 291 287 285 279 275 270 279 270 246 238 232 231 240 249 261 256
335 90 222 184 294 309 328 311 312 187 242 233 276 311 316 312 311 314 316 316 312 305 301 300 304 304 301 297 293 288 284 286 290 295 291 286 280 277 277 275 264 248 232 230 227 244 239 248 262
168 189 307 300 290 294 309 11 54 319 332 312 319 323 316 320 315 317 315 312 312 305 304 307 305 302 303 299 292 290 298 298 298 291 287 287 289 282 273 268 267 237 235 224 235 243 256 256 259
287 286 295 280 255 257 281 291 49 359 318 309 298 308 314 305 310 309 316 313 313 310 308 307 306 305 300 301 308 307 306 299 292 290 291 286 278 277 277 286 270 248 241 229 234 244 251 254 252